Location: Équennes
(49.7375°N, 1.9622°E)
Time: 01:31:58
(UTC+00:00)

IRIDIUM 106 - Pass Details

Date: 28 January 2023
Orbit: 776 x 779 km, 86.4° (Epoch: 30 March)

Event Time Altitude Azimuth Distance (km) Brightness Sun altitude
Rises 19:00:33 0° 357° (N) 3,278 7.6 -22.6°
Reaches altitude 10° 19:02:56 10° 0° (N) 2,346 6.8 -23.0°
Maximum altitude 19:08:11 69° 84° (E) 835 4.2 -23.8°
Enters shadow 19:10:03 40° 155° (SSE) 1,146 4.9 -24.1°
Exits shadow 19:15:07 - 170° (S) 3,009 7.3 -25.0°
Sets 19:15:44 0° 171° (S) 3,251 7.5 -25.1°
